Regional Weather Roundup
Issued by NWS Portland, ME

Home | Current Version | Previous Version | Text Only | Print | Product List | Glossary On
Versions: 1 2 3 4 5 6 7 8 9 10 11 12 13 14 15 16 17 18 19 20 21 22 23 24 25 26 27 28 29 30 31 32 33 34 35 36 37 38 39 40 41 42 43 44 45 46 47 48 49 50
000
ASUS41 KGYX 212010
RWRGYX
WEATHER ROUNDUP FOR MAINE AND NEW HAMPSHIRE
NATIONAL WEATHER SERVICE GRAY ME
400 PM EDT SAT OCT 21 2017

MEZ002-005-006-010-012-015-018-020-021-024-026-027-029-212100-
MAINE

CITY           SKY/WX    TMP DP  RH WIND       PRES   REMARKS
PORTLAND       MOSUNNY   67  48  50 SE6       30.23R
SANFORD        SUNNY     75  45  34 NW9       30.23R
BAR HARBOR     SUNNY     62  41  46 SW12      30.26R
WISCASSET      SUNNY     65  47  52 S5        30.25R
FRYEBURG       NOT AVBL
LEWISTONAUBURN SUNNY     73  44  35 SW3       30.22S
AUGUSTA        SUNNY     72  40  31 CALM      30.23S
WATERVILLE     SUNNY     70  42  36 CALM      30.20F
BANGOR         MOSUNNY   67  41  38 NW6       30.25R
GREENVILLE       N/A     62  42  47 CALM      30.22S
MILLINOCKET    SUNNY     65  37  35 NW7       30.24R
HOULTON        SUNNY     59  29  31 NW3       30.23R
PRESQUE ISLE   SUNNY     55  27  34 N7        30.25S
FRENCHVILLE    SUNNY     50  23  34 N6        30.24R
CARIBOU        SUNNY     55  26  32 N7        30.24R
$$

NHZ002-005-008-009-011-012-014-212100-
NEW HAMPSHIRE

CITY           SKY/WX    TMP DP  RH WIND       PRES   REMARKS
PORTSMOUTH     PTSUNNY   76  45  33 W6        30.21S
ROCHESTER      SUNNY     75  43  31 W6        30.23R
NASHUA         SUNNY     77  44  30 VRB6      30.24F
MANCHESTER     PTSUNNY   77  41  27 SW8       30.22S
CONCORD        SUNNY     78  46  32 W7        30.23S
LACONIA        SUNNY     74  46  36 SW9       30.24R
PLYMOUTH       FAIR      75  41  28 W5        30.24R
BERLIN         SUNNY     72  43  35 VRB3      30.24S
WHITEFIELD     SUNNY     72  43  35 W6        30.25S
JAFFREY        SUNNY     73  42  32 W8        30.28S
KEENE          SUNNY     77  44  30 SW8       30.26S
LEBANON        SUNNY     77  44  30 SW3       30.23S
MT WASHINGTON  PTSUNNY   45  39  81 NW38G47     N/A
$$

VTZ005-007-008-212100-
VERMONT

CITY           SKY/WX    TMP DP  RH WIND       PRES   REMARKS
ST JOHNSBURY     N/A     72  44  36 MISG      30.22S
BURLINGTON     PTSUNNY   73  43  33 S8        30.23S
$$

MAZ007-012-024-CTZ003-RIZ002-NYZ038-NYZ072-212100-
SOUTHERN NEW ENGLAND AND NY

CITY           SKY/WX    TMP DP  RH WIND       PRES   REMARKS
BOSTON         MOSUNNY   77  36  22 W12       30.24R
WORCESTER      SUNNY     71  36  27 W9        30.29S
NANTUCKET      SUNNY     64  51  62 SW9       30.29F
PROVIDENCE     PTSUNNY   72  46  39 S15       30.27S
HARTFORD       CLOUDY    79  34  19 W7        30.26S
ALBANY         CLOUDY    72  44  36 SE3       30.28R
NEW YORK CITY  CLOUDY    75  47  36 SW9       30.29S
$$

ANZ081-ANZ082-ANZ150-NHZ014-MEZ023>029-212100-
COASTAL MARINE OBSERVATIONS

STATION/POSITION TIME  TEMP    WIND        PRES    WAVE
                       AIR SEA DIR/SP/G            HT/PER
                 (UTC) (F)     (DEG/KT/KT) (MB)    (FT/S)
MOUNT DESERT ROC 2000   59     150/  5/  5 1025.2R
MATINICUS ROCK   1900   58     140/  8/  9 1024.2R
ISLE OF SHOALS   1900   65     190/ 13/ 13 1023.1F
JEFFREYS LEDGE   1936      58                N/A     2/ 9
GEORGES BANK BUO 1850   59 60              1025.4    3/ 6
$$

.............KEY..............
   WCI - WIND CHILL
   TC  - TEMPERATURE IN CELSIUS
   VSB - VISIBILITY IN MILES
   HX  - HEAT INDEX
   FAIR- INDICATES FEW OR NO CLOUDS BELOW 12,000 FT, WITH NO
         SIGNIFICANT WEATHER AND/OR OBSTRUCTIONS TO VISIBILITY.





USA.gov is the U.S. government's official web portal to all federal, state and local government web resources and services.